Weather History for Garrison, ND

Change the Weather History Date:

Saturday, January 19, 2013

  Actual Average Record
Temperature  
Mean Temperature 17 °F -  
Max Temperature 36 °F 16 °F - (-1)
Min Temperature -2 °F 0 °F - (-1)
Degree Days  
Heating Degree Days 48    
Month to date heating degree days 930  
Moisture  
Dew Point 5 °F    
Average Humidity 75    
Maximum Humidity 82    
Minimum Humidity 68    
Precipitation  
Precipitation 0.00 in - - ()
Month to date precipitation 0.35  
Year to date precipitation 0.35  
Sea Level Pressure  
Sea Level Pressure 30.18 in    
Wind  
Wind Speed 25 mph (NW)    
Max Wind Speed 46 mph    
Max Gust Speed 55 mph    
Averages and records for this station are not official NWS values.
T = Trace of Precipitation, MM = Missing Value Source: NWS Daily Summary

Daily Weather History Graph

Daily Weather History Graph

Search for Another Location

Airport:

Trip Planner

Search our weather history database for the weather conditions in past years. The results will help you decide how hot, cold, wet, or windy it might be!

Date:

Astronomy

Jan. 19, 2013 Rise Set
Actual Time 8:26 AM CST 5:27 PM CST
Civil Twilight 7:51 AM CST 6:01 PM CST
Nautical Twilight 7:13 AM CST 6:39 PM CST
Astronomical Twilight 6:37 AM CST 7:16 PM CST
Moon 11:59 AM CST (1/19) 1:56 AM CST (1/19)
Length of Visible Light 10h 10m
Length of Day
9h 01m
First Quarter, 57% of the Moon is Illuminated
Jan 19
First Quarter
Jan 26
Full
Feb 3
Last Quarter
Feb 10
New
Feb 17
First Quarter

Hourly Weather History & Observations

Time (CST) Temp. Windchill Dew Point Humidity Pressure Visibility Wind Dir Wind Speed Gust Speed Precip Events Conditions
12:52 AM 35.1 °F 25.9 °F 28.0 °F 76% 29.74 in - West 13.8 mph - N/A   Unknown
1:52 AM 35.1 °F 25.2 °F 28.0 °F 76% 29.77 in - WNW 16.1 mph 23.0 mph N/A   Unknown
2:52 AM 35.1 °F 24.8 °F 28.0 °F 76% 29.81 in - WNW 17.3 mph 24.2 mph N/A   Unknown
3:52 AM 34.0 °F 25.0 °F 28.0 °F 79% 29.83 in - WNW 12.7 mph - N/A   Unknown
4:52 AM 35.1 °F 24.1 °F 28.9 °F 78% 29.84 in - NW 19.6 mph - N/A   Unknown
5:52 AM 35.1 °F 22.0 °F 30.0 °F 82% 29.86 in - NW 28.8 mph 38.0 mph N/A   Unknown
6:52 AM 25.0 °F 8.4 °F 19.0 °F 78% 29.94 in - NW 28.8 mph 40.3 mph N/A   Unknown
7:52 AM 17.1 °F -2.0 °F 10.9 °F 77% 30.03 in - NNW 27.6 mph 35.7 mph N/A   Unknown
8:52 AM 12.9 °F -9.2 °F 7.0 °F 77% 30.09 in - NNW 33.4 mph 41.4 mph N/A   Unknown
9:52 AM 9.0 °F -15.5 °F 3.0 °F 77% 30.17 in - NNW 36.8 mph 47.2 mph N/A   Unknown
10:52 AM 8.1 °F -18.8 °F 3.0 °F 80% 30.21 in - NW 46.0 mph 54.1 mph N/A   Unknown
11:52 AM 6.1 °F -20.9 °F -2.0 °F 69% 30.25 in - NNW 42.6 mph 49.5 mph N/A   Unknown
12:52 PM 3.9 °F -23.1 °F -5.1 °F 66% 30.28 in - NNW 39.1 mph 48.3 mph N/A   Unknown
1:52 PM 3.0 °F -20.2 °F -6.0 °F 66% 30.35 in - NW 25.3 mph 33.4 mph N/A   Unknown
2:52 PM 1.9 °F -20.7 °F -6.0 °F 69% 30.38 in - NNW 23.0 mph 27.6 mph N/A   Unknown
3:52 PM 1.0 °F -19.9 °F -7.1 °F 69% 30.40 in - NNW 18.4 mph - N/A   Unknown
4:52 PM -0.0 °F -18.7 °F -8.0 °F 69% 30.41 in - NNW 13.8 mph - N/A   Unknown
5:52 PM -2.0 °F -15.4 °F -8.0 °F 76% 30.44 in - WNW 6.9 mph - N/A   Unknown
6:52 PM -2.9 °F -17.7 °F -9.0 °F 75% 30.45 in - West 8.1 mph - N/A   Unknown
7:52 PM -2.9 °F -17.7 °F -9.0 °F 75% 30.45 in - NW 8.1 mph - N/A   Unknown
8:52 PM -2.9 °F -19.8 °F -9.0 °F 75% 30.45 in - NW 10.4 mph - N/A   Unknown
9:52 PM -2.9 °F - -9.0 °F 75% 30.44 in - Calm Calm - N/A   Unknown
10:52 PM -2.0 °F -13.9 °F -9.0 °F 72% 30.42 in - NNW 5.8 mph - N/A   Unknown
11:52 PM -0.9 °F -8.9 °F -8.0 °F 72% 30.42 in - West 3.5 mph - N/A   Unknown